www.pogodaiklimat.ru
ПОГОДА в Раутаваара Яла-Луоста
Время
(UTC), дата
09 8.10
12 8.10
15 8.10
21 8.10
00 9.10
03 9.10
06 9.10
09 9.10
12 9.10
15 9.10
18 9.10
21 9.10
00 10.10
03 10.10
06 10.10
09 10.10
12 10.10
15 10.10
18 10.10
21 10.10
00 11.10
03 11.10
06 11.10
09 11.10
12 11.10
15 11.10
18 11.10
21 11.10
00 12.10
03 12.10
06 12.10
09 12.10
12 12.10
15 12.10
18 12.10
21 12.10
00 13.10
03 13.10
06 13.10
09 13.10
12 13.10
15 13.10
18 13.10
21 13.10
00 14.10
03 14.10
06 14.10
09 14.10
12 14.10
15 14.10
18 14.10
21 14.10
00 15.10
03 15.10
Ветер
(напр.,м/с)
Видим. Явления Облачность Т
(С)
Тd
(С)
f
(%)
Тe
(С)
Тes
(С)
Комфортность P
(гПа)
Po
(гПа)
Тmin
(С)
Tmax
(С)
R
(мм)
R24
(мм)
S
(см)
С 3-7
{7}
40 км 9/9 300 м
[]
+1.0 -1.3 85 -3 -3 прохладно 1005.2 984.7
СЗ 2-3
{5}
8000 м морось {дождь} 10/10 300 м
[]
+1.5 +0.1 90 -2 -2 по сезону 1003.9 983.5 0.1
СЗ 1-2
{4}
5000 м слаб. дождь {морось} 10/10 300 м
[]
+0.2 -0.3 96 -2 -2 по сезону 1002.7 982.2 0.1
З 1-2
{4}
15 км слаб. дождь {морось} 9/9 200 м
[]
-0.4 -0.9 96 -3 -3 прохладно 1000.9 980.4
ЮЗ 2-4
{4}
9000 м сильн. морось {ливн. осадки, дождь} 9/9 50 м
[]
-0.8 -1.2 97 -5 -5 холодно 1000.0 979.5 0.1
ЮЗ 2-3
{4}
23 км сильн. морось {дождь} 9/9 1500 м
[]
-1.4 -1.9 96 -5 -5 холодно 999.6 979.0
ЮЗ 2-4
{4}
35 км сильн. морось {дождь} 9/9 100 м
[]
-1.1 -1.9 94 -5 -5 холодно 999.4 978.8 -1.4 -0.3 <0.5
ЮЗ 2-6
{6}
35 км слаб. снег {дождь} 9/9 300 м
[]
+0.6 -1.1 88 -3 -3 прохладно 999.3 978.8
З 3-6
{9}
45 км в посл. час переохл. осадки (гололёд) 9/9 600 м
[]
+1.9 -1.6 78 -2 -2 по сезону 999.2 978.9
ЮЗ 2-4
{5}
3800 м дождь {снег} ?/? +1.0 -0.3 91 -3 -3 прохладно 999.9 979.5 0.1
ЮЗ 2-4
{4}
2700 м слаб. дождь со снегом 9/9 300 м
[]
+0.4 -0.1 96 -3 -3 прохладно 1000.4 979.9 -1.1 +2.2 0.2
ЮЗ 2-5
{5}
3800 м слаб. дождь 9/9 50 м
[]
+0.2 -0.2 97 -4 -4 прохладно 1001.1 980.6 0.2
ЮЗ 2-3
{4}
4400 м слаб. дождь 9/9 <50 м
[]
+0.1 -0.1 99 -4 -4 прохладно 1001.2 980.7 0.4
ЮЗ 2-3
{4}
3300 м слаб. дождь 9/9 50 м
[]
0.0 -0.3 98 -4 -4 прохладно 1001.3 980.8 0.1
Ю 2-3
{3}
30 км {дождь, морось} 9/9 600 м
[]
-0.2 -0.7 96 -4 -4 прохладно 1001.8 981.3 -0.3 +0.4 2
ЮЗ 1-2
{3}
45 км 1/0 200 м
[]
+2.5 +0.6 87 +1 +3 по сезону 1001.6 981.3
ЮЗ 2-4
{5}
50 км 9/0 2000 м
[]
+3.8 +0.4 78 +1 +2 по сезону 1001.5 981.3
штиль 0
{3}
40 км 9/0
[]
+1.5 +0.6 94 0 0 по сезону 1001.2 980.8
Ю 1-2
{2}
28 км 10/0
[]
-0.3 -0.6 98 -3 -3 прохладно 1001.3 980.8 -0.3 +4.2
Ю 1-2
{2}
23 км 9/9 300 м
[]
+0.3 +0.1 99 -2 -2 по сезону 1000.6 980.1
Ю 2-3
{3}
40 км 10/10 200 м
[]
+1.7 +1.4 98 -2 -2 по сезону 999.6 979.3
Ю 2-4
{6}
11 км ливневой дождь {морось} 10/10 50 м
[]
+3.4 +3.1 98 0 0 по сезону 998.4 978.2 0.2
Ю 3-5
{6}
13 км слаб. дождь 10/10 50 м
[]
+4.4 +4.2 99 +1 +1 по сезону 997.3 977.2 -0.3 +4.4 2 <0.5
Ю 3-6
{6}
10 км морось {ливн. осадки, дождь} 10/10 50 м
[]
+6.4 +6.1 98 +3 +3 по сезону 996.8 976.9 0.1
Ю 3-5
{6}
5000 м морось {ливн. осадки, дождь} 9/9 50 м
[]
+7.0 +6.6 97 +4 +4 по сезону 996.4 976.5 0.1
Ю 2-4
{5}
14 км в посл. час дождь со снегом {ливн. осадки, морось} 10/10 50 м
[]
+7.0 +6.7 98 +5 +5 тепло 995.7 975.9 0.2
Ю 3-4
{6}
16 км ливневой дождь {морось} 10/10 50 м
[]
+6.9 +6.6 98 +4 +4 по сезону 995.2 975.3 +4.4 +7.3
Ю 2-4
{6}
30 км {ливн. осадки} 9/9 100 м
[]
+6.9 +6.5 97 +4 +4 по сезону 994.3 974.4
Ю 2-5
{5}
30 км {ливн. осадки, дождь} 10/10 100 м
[]
+6.9 +6.6 98 +4 +4 по сезону 993.4 973.5
Ю 2-3
{4}
28 км 10/10 100 м
[]
+6.4 +6.0 97 +4 +4 по сезону 992.0 972.2
В 1-2
{4}
45 км 9/9 200 м
[]
+5.9 +5.1 95 +5 +5 тепло 990.2 970.4 +5.8 +7.0 <0.5
СВ 2-5
{5}
45 км в посл. час снег {ливн. осадки, морось} 10/10 100 м
[]
+6.3 +5.7 96 +4 +4 по сезону 988.3 968.5
С 3-6
{7}
20 км слаб. морось 9/9 200 м
[]
+6.4 +5.6 95 +3 +3 по сезону 987.8 968.1 0.1
СЗ 2-4
{6}
50 км в посл. час снег {морось} 10/10 600 м
[]
+6.0 +5.3 95 +3 +3 по сезону 989.0 969.2
СЗ 3-6
{6}
50 км {морось} 10/10 100 м
[]
+5.3 +4.5 95 +2 +2 по сезону 991.3 971.4 +5.3 +6.6
СЗ 3-5
{5}
50 км 10/0 100 м
[]
+3.1 +2.6 97 -1 -1 по сезону 993.9 973.7
З 2-3
{5}
14 км 10/0 50 м
[]
+1.5 +1.2 98 -2 -2 по сезону 995.8 975.5
З 2-3
{4}
4800 м дымка 10/10 50 м
[]
+0.3 0.0 98 -4 -4 прохладно 997.5 977.0
З 1-3
{4}
4600 м дымка 10/10 50 м
[]
-0.1 -0.4 98 -2 -2 по сезону 998.5 978.0 -0.1 +5.2 0.1 <0.5
ЮЗ 2-3
{4}
5000 м дымка 10/10 50 м
[]
+0.7 +0.2 96 -3 -3 прохладно 1000.2 979.7 0.1
СЗ 2-4
{4}
50 км в посл. час дождь со снегом {ливн. осадки} 10/10 200 м
[]
+1.7 +0.3 90 -2 -2 по сезону 1002.0 981.6
З 1-3
{4}
14 км 10/10 200 м
[]
+1.6 +0.4 92 -0 -0 по сезону 1004.2 983.8
З 1-4
{7}
50 км в посл. час снег {ливн. осадки, дождь} 9/9 300 м
[]
+0.7 -0.5 92 -1 -1 по сезону 1006.5 985.9 -0.1 +2.1 0.1
ЮЗ 2-3
{3}
19 км слаб. дождь {морось} 10/10 100 м
[]
+0.7 +0.1 96 -3 -3 прохладно 1008.4 987.8
ЮЗ 2-3
{3}
35 км в посл. час дождь со снегом {ливн. осадки} 9/9 100 м
[]
+0.5 +0.1 97 -3 -3 прохладно 1009.7 989.1
Ю 1-2
{3}
50 км {ливн. осадки, дождь} 9/0 600 м
[]
+0.3 -0.2 96 -2 -2 по сезону 1009.7 989.1
ЮЗ 1-2
{3}
45 км в посл. час снег {ливн. осадки, дождь} 9/9 300 м
[]
+0.5 0.0 96 -2 -2 по сезону 1009.9 989.3 0.0 +1.1 <0.5
ЮЗ 2-3
{4}
50 км {ливн. осадки} 9/9 300 м
[]
+1.8 -1.4 79 -1 -1 по сезону 1010.1 989.6
ЮЗ 2-3
{4}
50 км {ливн. осадки, снег} 9/9 600 м
[]
+2.0 -2.3 73 -1 -1 по сезону 1009.8 989.3
штиль 0
{3}
50 км 9/0 1000 м
[]
+0.7 -1.4 86 -0 -0 по сезону 1010.4 989.8
ЮЗ 1-2
{2}
50 км 1/0 1000 м
[]
-1.6 -2.3 95 -4 -4 прохладно 1012.2 991.4 -1.6 +2.4
Ю 1-1
{1}
50 км ясно -3.1 -3.4 98 -6 -6 холодно 1013.8 992.8
ЮЗ 1-2
{2}
30 км ясно -2.5 -2.8 98 -5 -5 холодно 1015.6 994.6
ЮЗ 1-2
{3}
24 км 9/9 200 м
[]
0.0 -0.5 96 -2 -2 по сезону 1017.5 996.7
Местоположение метеостанции Раутаваара Яла-Луоста (Финляндия): широта 63.38 долгота 28.66 высота над уровнем моря 166 м.
В архиве по умолчанию представлена погода в Раутаваара Яла-Луоста за последнюю неделю. Архивные данные за месяц целиком и за предыдущие месяцы, начиная с января 2011 года, Вы можете получить, выбрав интересующий диапазон дат из раскрывающегося списка и нажав кнопку "Найти!".
*Определитесь, кто Вы:
Внимание! Время в таблицах - всемирное. Для получения местного времени необходимо прибавить поправку, которая равна 1 ч.
Смотрите также архив погоды в соседних городах и на ближайших метеорологических станциях:
Партнеры нашего сайта:      
Пояснения к столбцам:
  • Ветер - указаны скорость ветра в м/с - средняя за 10 мин, порывы в срок и между сроками (в фигурных скобках) и направление, откуда дует ветер: С - северный,
  • СВ - северо-восточный, В - восточный, ЮВ - юго-восточный, Ю - южный, ЮЗ - юго-западный, З - западный, СЗ - северо-западный.
  • Видимость - горизонтальная дальность видимости в метрах или километрах. При видимости от 1 до 10 км при отсутствии осадков обычно наблюдается дымка, при ухудшении видимости до 1 км и менее - туман. В сухую погоду видимость может ухудшаться дымом, пылью или мглою.
  • Явления - указаны атмосферные явления, наблюдавшиеся в срок или в последний час перед сроком; фигурными скобками обозначены явления, наблюдавшиеся между сроками (за 1-3 часа до срока); квадратными скобками обозначены град или гололедные отложения с указанием их диаметра в мм.
  • Облачность - указаны через наклонную черту общая и нижняя облачность в баллах и высота нижней границы облаков в метрах; квадратными скобками обозначены формы облаков: Ci - перистые, Cs - перисто-слоистые, Cc - перисто-кучевые, Ac - высококучевые, As - высокослоистые, Sc - слоисто-кучевые, Ns - слоисто-дождевые, Cu - кучевые, Cb - кучево-дождевые. Подробнее классификацию облаков см. в Атласе облаков (PDF).
  • T - Температура воздуха - температура, измеренная на высоте 2 м над землей.
  • Td - Температура точки росы - температура, при понижении до которой содержащийся в воздухе водяной пар достигнет насыщения.
  • f - Относительная влажность воздуха - влажноcть воздуха, измеренная на высоте 2 м над землей.
  • Te - Эффективная температура - температура, которую ощущает одетый по сезону человек в тени. Характеристика душности погоды. При расчете учитывается влияние влажности воздуха и скорости ветра на теплоощущения человека.
  • Tes - Эффективная температура на солнце - температура, которую ощущает человек, с поправкой на солнечный нагрев. Характеристика знойности погоды. Зависит от высоты солнца над горизонтом, облачности и скорости ветра. Ночью, в пасмурную погоду, а также при ветре 12 м/с и более поправка равна нулю.
  • P - Атмосферное давление - приведенное к уровню моря атмосферное давление.
  • Po - Атмосферное давление - измеренное на уровне метеостанции атмосферное давление.
  • Tmin - Минимальная температура - минимум температуры воздуха на высоте 2 м над землей.
  • Tmax - Максимальная температура - максимум температуры воздуха на высоте 2 м над землей.
  • R - Количество осадков - Количество выпавших осадков за период времени, мм. При наведении курсора мыши на число - период времени, за который выпало указанное количество осадков.
  • R24 - Количество осадков - Количество выпавших осадков за 24 часа, мм.
  • S - Снежный покров - Высота снежного покрова, см. При наведении курсора мыши на число - состояние снежного покрова и степень покрытия местности в баллах.